カタログに戻る

PRAETORIAN SDA_616

運用中軍事PO
NORAD 65579·PAYLOAD·🇺🇸 United States

打ち上げ Sep 10, 2025 から Vandenberg Space Force Base

Loading…

次のパス (今後24時間)

TLE

最新Source: Space-Track

元期: Sep 13, 2026, 19:21 UTC

1 65579U 25203Q   26256.80676907  .00000104  00000-0  84455-4 0  9993
2 65579  81.3040 289.1699 0004868 332.2824  27.8072 13.83274946 50934

AllMySatでPRAETORIAN SDA_616をリアルタイム追跡

Download on the App Store